COSMOS 2251 DEB, 34387

Orbit data source: Space-Track

COSMOS 2251 DEB, 34387 is space debris in LEO originally from a launch on Wed, 16 Jun 1993 UTC launched from the Plesetsk Missile And Space Complex (PKMTR). The debris from Iridium 33, an American commercial communications satellite, has been tracked extensively since its accidental collision with the defunct Russian satellite Cosmos 2251 in 2009. This event, occurring at high speed in low Earth orbit (LEO), generated thousands of pieces of space debris, significantly increasing the risk of further collisions. The Iridium 33 debris cloud has impacted space traffic management and orbital debris mitigation strategies, making it a subject of ongoing study in space situational awareness.

Loading next visibility...
Identifier
34387, 1993-036QC
Orbit
LEO
Country
Flag of CISCIS
Related business
Manufacturer
Unknown
Mission
Spacecraft
Bus & Motor
Unknown
Mass
Unknown
Launch date (UTC)
1993-06-16 (33 years ago)
Launch vehicle
Unknown
Launch site
Plesetsk Missile And Space Complex (PKMTR)
Object type
Payload
Rocket body
Debris
Shape & HBR
Unknown shape, 0.1 m
Radar Cross Section
Small (<0.1 m²)

Expand to show TLE details & history
Last TLE update: 1 day ago

TLE from 1 day ago
0 COSMOS 2251 DEB
1 34387U 93036QC  26121.27532368  .00000920  00000-0  27347-3 0  9991
2 34387  74.0398 312.4588 0037839  15.8022 161.0598 14.44184291901959
Epoch: 2026-05-01T06:36Z
TLE epoch observation values (Epoch: 2026-05-01T06:36:27.965Z)
Latitude
2.78838°
Longitude
173.3385°
Altitude
772.517 km
Speed
7.455 km/s
True Right ascension
08h 46m 39s
True Declination
2° 46' 18"
Sunlit
Object was in daylight at epoch
Visualization orbit readout
Latitude
Unknown
Longitude
Unknown
Altitude
Unknown
Speed
Unknown
Apparent Right ascension
Unknown
Apparent Declination
Unknown
Sunlit
N/A
Visualization observer readout
Local Sidereal Time
22:55:29
Azimuth
Unknown
Elevation
Unknown
Doppler factor
Unknown
Orbital elements
Apogee altitude
769.265 km
Perigee altitude
715.378 km
Semi-major axis
7,120.459 km
Eccentricity
0.00378
Inclination
74.0398°
RAAN
312.4588°
Arg. of periapsis
15.8022°
True anomaly
161.19991°
Mean anomaly
161.0598°
Eccentric anomaly
161.12992°
Mean motion
3.61228 °/min
Orbital period
99.66 mins
BSTAR
0.00027347
Loading maneuver chart data...
Computing Atmospheric mass density...

Documentation

Showing up to 5 results
|